"datetime","# probes","# resolvers","can_ipv6","can_ipv6_prbs","can_tcp","can_tcp_prbs","can_tcp6","can_tcp6_prbs","does_ecs","does_ecs_prbs","does_flagday","does_flagday_prbs","does_rov4","does_rov4_prbs","does_rov6","does_rov6_prbs","does_qnamemin","doesnt_qnamemin","does_qnamemin_prbs","doesnt_qnamemin_prbs","does_nxdomain","doesnt_nxdomain","does_nxdomain_prbs","doesnt_nxdomain_prbs","has_ta_19036","hasnt_ta_19036","has_ta_19036_prbs","hasnt_ta_19036_prbs","has_ta_20326","hasnt_ta_20326","has_ta_20326_prbs","hasnt_ta_20326_prbs","can_rsamd5","cannot_rsamd5","broken_rsamd5","can_rsamd5_prbs","cannot_rsamd5_prbs","broken_rsamd5_prbs","can_dsa","cannot_dsa","broken_dsa","can_dsa_prbs","cannot_dsa_prbs","broken_dsa_prbs","can_rsasha1","cannot_rsasha1","broken_rsasha1","can_rsasha1_prbs","cannot_rsasha1_prbs","broken_rsasha1_prbs","can_dsansec3","cannot_dsansec3","broken_dsansec3","can_dsansec3_prbs","cannot_dsansec3_prbs","broken_dsansec3_prbs","can_rsansec3","cannot_rsansec3","broken_rsansec3","can_rsansec3_prbs","cannot_rsansec3_prbs","broken_rsansec3_prbs","can_rsasha256","cannot_rsasha256","broken_rsasha256","can_rsasha256_prbs","cannot_rsasha256_prbs","broken_rsasha256_prbs","can_rsasha512","cannot_rsasha512","broken_rsasha512","can_rsasha512_prbs","cannot_rsasha512_prbs","broken_rsasha512_prbs","can_eccgost","cannot_eccgost","broken_eccgost","can_eccgost_prbs","cannot_eccgost_prbs","broken_eccgost_prbs","can_ecdsa256","cannot_ecdsa256","broken_ecdsa256","can_ecdsa256_prbs","cannot_ecdsa256_prbs","broken_ecdsa256_prbs","can_ecdsa384","cannot_ecdsa384","broken_ecdsa384","can_ecdsa384_prbs","cannot_ecdsa384_prbs","broken_ecdsa384_prbs","can_ed25519","cannot_ed25519","broken_ed25519","can_ed25519_prbs","cannot_ed25519_prbs","broken_ed25519_prbs","can_ed448","cannot_ed448","broken_ed448","can_ed448_prbs","cannot_ed448_prbs","broken_ed448_prbs","can_gost","cannot_gost","broken_gost","can_gost_prbs","cannot_gost_prbs","broken_gost_prbs","can_sha384","cannot_sha384","broken_sha384","can_sha384_prbs","cannot_sha384_prbs","broken_sha384_prbs","is_internal","is_forwarding","is_external","is_internal_prbs","is_forwarding_prbs","is_external_prbs"
2018-07-19T23:56:53Z,2,3,3,2,3,2,3,2,1,1,0,0,0,0,0,0,2,1,1,1,0,3,0,2,2,0,1,0,3,0,2,0,0,2,1,0,1,1,0,3,0,0,2,0,3,0,0,2,0,0,0,3,0,0,2,0,3,0,0,2,0,0,3,0,0,2,0,0,3,0,0,2,0,0,0,3,0,0,2,0,3,0,0,2,0,0,3,0,0,2,0,0,0,3,0,0,2,0,0,3,0,0,2,0,1,2,0,1,1,0,3,0,0,2,0,0,2,1,0,1,1,0
2018-07-20T23:56:54Z,4,5,5,4,5,4,5,4,1,1,0,0,0,0,0,0,3,2,2,2,0,5,0,4,2,0,1,0,5,0,4,0,0,4,1,0,3,1,1,4,0,1,3,0,5,0,0,4,0,0,0,5,0,0,4,0,5,0,0,4,0,0,5,0,0,4,0,0,5,0,0,4,0,0,0,5,0,0,4,0,5,0,0,4,0,0,5,0,0,4,0,0,0,5,0,0,4,0,0,5,0,0,4,0,1,4,0,1,3,0,5,0,0,4,0,0,3,1,1,2,1,1
2018-07-21T23:57:02Z,2,3,3,2,3,2,3,2,0,0,0,0,0,0,0,0,2,1,1,1,0,3,0,2,2,1,1,1,3,0,2,0,0,3,0,0,2,0,0,3,0,0,2,0,3,0,0,2,1,0,0,3,0,0,2,0,3,0,0,2,1,0,3,0,0,2,1,0,3,0,0,2,1,0,0,3,0,0,2,0,3,0,0,2,1,0,3,0,0,2,1,0,0,3,0,0,2,0,0,3,0,0,2,0,0,3,0,0,2,0,3,0,0,2,1,0,3,0,0,2,0,0
2018-07-22T23:56:56Z,2,3,3,2,3,2,3,2,0,0,0,0,0,0,0,0,3,0,2,0,0,3,0,2,3,0,2,0,3,0,2,0,0,3,0,0,2,0,1,2,0,1,1,0,3,0,0,2,0,0,0,3,0,0,2,0,3,0,0,2,0,0,3,0,0,2,0,0,3,0,0,2,0,0,0,3,0,0,2,0,3,0,0,2,0,0,3,0,0,2,0,0,0,3,0,0,2,0,0,3,0,0,2,0,0,3,0,0,2,0,3,0,0,2,0,0,3,0,0,2,0,0
2018-07-23T23:57:21Z,2,3,3,2,3,2,3,2,1,1,0,0,0,0,0,0,2,1,1,1,0,3,0,2,3,0,2,0,3,0,2,0,0,2,1,0,1,1,0,3,0,0,2,0,3,0,0,2,0,0,0,3,0,0,2,0,3,0,0,2,0,0,3,0,0,2,0,0,3,0,0,2,0,0,0,3,0,0,2,0,3,0,0,2,0,0,3,0,0,2,0,0,0,3,0,0,2,0,0,3,0,0,2,0,1,2,0,1,1,0,3,0,0,2,0,0,2,1,0,1,1,0
2018-07-24T23:56:54Z,2,2,2,2,2,2,2,2,0,0,0,0,0,0,0,0,2,0,2,0,0,2,0,2,2,0,2,0,2,0,2,0,0,2,0,0,2,0,1,1,0,1,1,0,2,0,0,2,0,0,0,2,0,0,2,0,2,0,0,2,0,0,2,0,0,2,0,0,2,0,0,2,0,0,0,2,0,0,2,0,2,0,0,2,0,0,2,0,0,2,0,0,0,2,0,0,2,0,0,2,0,0,2,0,0,2,0,0,2,0,2,0,0,2,0,0,2,0,0,2,0,0
2018-07-25T23:56:55Z,1,1,1,1,1,1,1,1,0,0,0,0,0,0,0,0,1,0,1,0,0,1,0,1,1,0,1,0,1,0,1,0,0,1,0,0,1,0,0,1,0,0,1,0,1,0,0,1,0,0,0,1,0,0,1,0,1,0,0,1,0,0,1,0,0,1,0,0,1,0,0,1,0,0,0,1,0,0,1,0,1,0,0,1,0,0,1,0,0,1,0,0,0,1,0,0,1,0,0,1,0,0,1,0,0,1,0,0,1,0,1,0,0,1,0,0,1,0,0,1,0,0
2018-07-26T23:56:55Z,2,2,2,2,2,2,2,2,0,0,0,0,0,0,0,0,1,1,1,1,0,2,0,2,1,0,1,0,2,0,2,0,0,2,0,0,2,0,0,2,0,0,2,0,2,0,0,2,0,0,0,2,0,0,2,0,2,0,0,2,0,0,2,0,0,2,0,0,2,0,0,2,0,0,0,2,0,0,2,0,2,0,0,2,0,0,2,0,0,2,0,0,0,2,0,0,2,0,0,2,0,0,2,0,0,2,0,0,2,0,2,0,0,2,0,0,1,1,0,1,1,0
2018-07-27T23:57:16Z,2,2,2,2,2,2,2,2,1,1,0,0,0,0,0,0,1,1,1,1,0,2,0,2,1,1,1,1,2,0,2,0,0,1,1,0,1,1,0,2,0,0,2,0,2,0,0,2,0,0,0,2,0,0,2,0,2,0,0,2,0,0,2,0,0,2,0,0,2,0,0,2,0,0,0,2,0,0,2,0,2,0,0,2,0,0,2,0,0,2,0,0,0,2,0,0,2,0,0,2,0,0,2,0,1,1,0,1,1,0,2,0,0,2,0,0,1,1,0,1,1,1
2018-07-28T23:58:40Z,4,5,3,3,5,4,3,3,0,1,0,0,0,0,0,0,1,4,1,3,0,4,0,4,1,1,1,1,5,0,4,0,0,2,3,1,3,3,0,5,0,1,4,1,3,1,1,2,1,1,0,5,0,1,4,1,3,1,1,2,2,2,3,2,0,2,2,1,3,1,1,2,2,2,1,3,1,2,3,2,3,0,2,2,1,2,4,1,0,3,2,1,0,4,1,0,3,1,1,3,1,1,3,2,0,3,2,1,3,2,3,2,0,2,2,1,3,1,1,2,2,1
2018-07-29T23:57:32Z,2,2,2,2,2,2,2,2,1,1,0,0,0,0,0,0,1,1,1,1,0,2,0,2,1,1,1,1,2,0,2,0,0,1,1,0,2,1,0,2,0,0,2,0,2,0,0,2,1,0,0,2,0,0,2,0,2,0,0,2,1,0,2,0,0,2,1,0,2,0,0,2,1,0,0,2,0,0,2,0,2,0,0,2,1,0,2,0,0,2,1,0,0,2,0,0,2,0,0,2,0,0,2,0,1,1,0,1,2,0,2,0,0,2,1,0,1,0,1,2,0,1
2018-07-30T23:56:55Z,2,2,2,2,2,2,2,2,0,1,0,0,0,0,0,0,1,1,2,1,0,2,0,2,1,1,1,1,2,0,2,0,0,1,1,0,2,1,0,2,0,0,2,0,2,0,0,2,0,0,0,2,0,0,2,0,2,0,0,2,0,0,2,0,0,2,0,0,2,0,0,2,0,0,0,2,0,0,2,0,2,0,0,2,0,0,2,0,0,2,0,0,0,2,0,0,2,0,0,2,0,0,2,0,0,2,0,0,2,0,2,0,0,2,0,0,1,1,0,1,1,0
2018-07-31T23:56:55Z,1,1,1,1,1,1,1,1,0,0,0,0,0,0,0,0,1,0,1,0,0,1,0,1,1,0,1,0,1,0,1,0,0,1,0,0,1,0,0,1,0,0,1,0,1,0,0,1,0,0,0,1,0,0,1,0,1,0,0,1,0,0,1,0,0,1,0,0,1,0,0,1,0,0,0,1,0,0,1,0,1,0,0,1,0,0,1,0,0,1,0,0,0,1,0,0,1,0,0,1,0,0,1,0,0,1,0,0,1,0,1,0,0,1,0,0,1,0,0,1,0,0
2018-08-01T23:56:52Z,2,2,2,2,1,1,2,2,0,0,0,0,0,0,0,0,2,0,2,0,0,2,0,2,1,1,1,1,2,0,2,0,0,1,1,0,1,1,0,1,1,0,1,1,1,0,1,1,0,1,0,2,0,0,2,0,2,0,0,2,0,0,1,0,1,1,0,1,2,0,0,2,0,0,0,1,1,0,1,1,1,0,1,1,0,1,2,0,0,2,0,0,1,1,0,1,1,0,0,2,0,0,2,0,0,1,1,0,1,1,1,0,1,1,0,1,1,0,1,1,1,1
2018-08-02T23:56:54Z,2,2,2,2,2,2,2,2,1,1,0,0,0,0,0,0,1,1,1,1,0,2,0,2,1,1,1,1,2,0,2,0,0,1,1,0,1,1,0,2,0,0,2,0,2,0,0,2,0,0,0,2,0,0,2,0,2,0,0,2,0,0,2,0,0,2,0,0,2,0,0,2,0,0,0,2,0,0,2,0,2,0,0,2,0,0,2,0,0,2,0,0,0,2,0,0,2,0,0,2,0,0,2,0,1,1,0,1,1,0,2,0,0,2,0,0,1,0,1,1,0,1
2018-08-03T23:56:55Z,1,1,1,1,1,1,1,1,0,0,0,0,0,0,0,0,1,0,1,0,0,1,0,1,1,0,1,0,1,0,1,0,0,1,0,0,1,0,0,1,0,0,1,0,1,0,0,1,0,0,0,1,0,0,1,0,1,0,0,1,0,0,1,0,0,1,0,0,1,0,0,1,0,0,0,1,0,0,1,0,1,0,0,1,0,0,1,0,0,1,0,0,0,1,0,0,1,0,0,1,0,0,1,0,0,1,0,0,1,0,1,0,0,1,0,0,1,0,0,1,0,0
2018-08-04T23:58:00Z,2,2,2,2,2,2,2,2,0,0,0,0,0,0,0,0,2,0,2,0,0,2,0,2,2,0,2,0,2,0,2,0,0,2,0,0,2,0,0,2,0,0,2,0,2,0,0,2,0,0,0,2,0,0,2,0,2,0,0,2,0,0,2,0,0,2,0,0,2,0,0,2,0,0,0,2,0,0,2,0,2,0,0,2,0,0,2,0,0,2,0,0,0,2,0,0,2,0,0,2,0,0,2,0,0,2,0,0,2,0,2,0,0,2,0,0,2,0,0,2,0,0
2018-08-05T23:58:01Z,3,5,5,3,5,3,5,3,0,0,0,0,0,0,0,0,1,4,1,2,0,5,0,3,5,0,3,0,5,0,3,0,0,3,2,1,2,1,0,5,0,1,3,0,5,0,0,3,0,0,0,5,0,1,3,0,5,0,0,3,0,0,5,0,0,3,0,0,5,0,0,3,0,0,0,5,0,1,3,0,5,0,0,3,0,0,5,0,0,3,0,0,0,5,0,0,3,0,0,5,0,0,3,0,0,3,2,1,2,1,5,0,0,3,0,0,5,0,0,3,0,0
2018-08-06T23:58:19Z,8,10,10,8,9,8,10,8,0,4,0,0,0,0,0,0,5,5,6,7,0,10,0,8,4,2,3,2,10,0,8,0,0,10,0,1,8,4,0,10,0,1,8,0,9,0,1,8,0,1,0,10,0,2,8,0,10,0,0,8,0,0,8,0,2,8,0,1,10,0,0,8,0,0,1,8,1,1,8,1,9,0,1,8,0,1,10,0,0,8,0,0,6,4,0,6,7,0,0,10,0,0,8,0,0,10,0,4,8,0,10,0,0,8,0,0,3,4,3,3,4,6
2018-08-07T23:57:59Z,3,4,4,3,4,3,4,3,0,1,0,0,0,0,0,0,2,2,2,2,0,4,0,3,3,1,2,1,4,0,3,0,0,4,0,0,3,1,0,4,0,0,3,0,4,0,0,3,0,1,0,4,0,1,3,0,4,0,0,3,0,0,4,0,0,3,0,1,3,0,1,3,0,1,0,4,0,0,3,0,4,0,0,3,0,0,4,0,0,3,0,0,1,3,0,1,3,0,0,4,0,0,3,1,0,4,0,1,3,0,4,0,0,3,0,0,3,1,0,2,1,1
2018-08-08T23:58:59Z,7,9,7,6,8,7,7,6,1,2,0,0,0,0,0,0,4,5,4,4,0,9,0,7,5,2,3,2,9,0,7,0,0,7,2,0,5,2,2,7,0,2,7,1,8,1,0,6,3,1,0,9,0,0,7,1,6,3,0,5,3,1,6,3,0,5,3,1,6,2,1,5,2,3,0,9,0,0,7,1,8,1,0,6,2,1,8,1,0,6,2,1,0,9,0,0,7,1,0,9,0,0,7,1,1,8,0,2,6,1,7,2,0,6,3,1,4,3,2,3,2,4
2018-08-09T23:59:02Z,5,7,5,4,7,5,3,3,1,1,0,0,0,0,0,0,2,5,2,4,1,6,1,4,6,0,4,0,7,0,5,0,0,6,1,0,4,1,0,7,0,0,5,0,7,0,0,5,1,0,0,7,0,0,5,0,7,0,0,5,1,0,7,0,0,5,1,0,7,0,0,5,1,0,0,7,0,0,5,0,7,0,0,5,1,0,7,0,0,5,1,0,0,7,0,0,5,0,0,7,0,0,5,0,1,6,0,1,4,0,7,0,0,5,1,0,4,3,0,3,2,1
2018-08-10T23:59:59Z,5,6,4,4,6,5,3,4,1,1,0,0,0,0,0,0,2,4,2,4,0,6,0,5,5,0,4,0,6,0,5,0,0,5,1,0,4,2,0,6,0,0,5,1,6,0,0,5,1,1,0,6,0,0,5,1,6,0,0,5,1,1,6,0,0,5,1,1,6,0,0,5,1,1,0,6,0,0,5,1,6,0,0,5,1,1,6,0,0,5,1,1,0,6,0,0,5,1,0,6,0,0,5,1,1,5,0,1,4,1,6,0,0,5,1,1,3,2,1,3,1,2
2018-08-11T23:58:59Z,7,9,7,6,9,7,6,6,2,2,0,0,0,0,0,0,3,6,3,5,0,9,0,7,6,2,4,2,9,0,7,0,0,7,2,0,6,2,0,9,0,0,7,0,9,0,0,7,2,0,0,9,0,1,7,0,9,0,0,7,3,0,8,1,0,7,3,0,8,1,0,7,3,0,0,9,0,0,7,0,9,0,0,7,3,0,9,0,0,7,3,0,0,9,0,0,7,0,0,9,0,0,7,0,2,7,0,2,6,0,8,1,0,7,3,0,5,3,1,4,3,3
2018-08-12T23:59:00Z,4,6,4,3,6,4,3,3,0,0,0,0,0,0,0,0,2,4,2,3,0,6,0,4,6,0,4,0,6,0,4,0,0,6,0,0,4,0,0,6,0,0,4,0,6,0,0,4,1,0,0,6,0,0,4,0,6,0,0,4,1,0,6,0,0,4,1,0,6,0,0,4,1,0,0,6,0,0,4,0,6,0,0,4,1,0,6,0,0,4,1,0,0,6,0,0,4,0,0,6,0,0,4,0,0,6,0,0,4,0,6,0,0,4,1,0,4,2,0,3,1,1
2018-08-13T23:59:02Z,6,8,6,5,8,6,5,5,2,2,0,0,0,0,0,0,2,6,2,5,0,8,0,6,6,1,4,1,8,0,6,0,0,6,2,0,5,2,0,8,0,0,6,0,8,0,0,6,2,0,0,8,0,0,6,0,8,0,0,6,2,0,8,0,0,6,2,0,8,0,0,6,2,0,0,8,0,0,6,0,8,0,0,6,2,0,8,0,0,6,2,0,0,8,0,0,6,0,0,8,0,0,6,0,2,6,0,2,5,0,8,0,0,6,2,0,4,2,2,4,1,3
2018-08-14T23:58:59Z,4,6,4,3,6,4,3,3,0,0,0,0,0,0,0,0,2,4,2,3,0,6,0,4,6,0,4,0,6,0,4,0,0,6,0,0,4,0,0,6,0,0,4,0,6,0,0,4,1,0,0,6,0,0,4,0,6,0,0,4,1,0,6,0,0,4,1,0,6,0,0,4,1,0,0,6,0,0,4,0,6,0,0,4,1,0,6,0,0,4,1,0,0,6,0,0,4,0,0,6,0,0,4,0,0,6,0,0,4,0,6,0,0,4,1,0,4,2,0,3,1,1
2018-08-15T23:59:57Z,46,70,44,31,70,46,35,26,3,4,0,0,0,0,0,0,49,21,34,16,0,70,0,46,58,0,39,0,70,0,46,0,0,70,0,0,46,2,0,70,0,0,46,1,70,0,0,46,2,0,0,70,0,0,46,1,70,0,0,46,2,0,70,0,0,46,2,0,70,0,0,46,2,0,0,70,0,0,46,0,70,0,0,46,2,0,70,0,0,46,2,0,0,70,0,1,46,0,0,70,0,0,46,0,0,70,0,2,46,1,70,0,0,46,2,0,53,16,1,34,12,5
2018-08-16T23:59:57Z,57,85,55,41,84,56,44,33,7,9,0,0,0,0,0,0,54,31,39,24,0,84,0,57,80,1,52,1,85,0,57,0,1,81,3,1,55,5,2,83,0,3,57,1,83,2,0,55,5,0,0,85,0,1,57,1,83,1,1,56,5,1,84,1,0,56,5,0,82,1,2,55,5,2,0,85,0,0,57,0,83,1,1,56,5,1,83,1,1,56,5,1,0,83,2,1,57,2,0,83,2,0,57,2,3,82,0,5,55,1,83,1,1,55,5,1,62,20,3,40,18,8
2018-08-17T23:59:57Z,53,83,52,36,83,53,44,31,6,7,0,0,0,0,0,0,51,32,36,22,0,83,0,53,81,0,52,0,83,0,53,0,0,80,3,1,52,4,0,83,0,1,53,1,83,0,0,53,3,0,0,83,0,1,53,1,83,0,0,53,3,0,83,0,0,53,3,0,83,0,0,53,3,0,0,83,0,1,53,0,83,0,0,53,3,0,83,0,0,53,3,0,0,83,0,1,53,0,0,83,0,0,53,0,1,80,2,4,52,2,83,0,0,53,3,0,63,19,1,40,14,5
2018-08-18T23:59:57Z,49,77,49,34,77,49,45,31,5,6,0,0,0,0,0,0,47,30,33,20,0,77,0,49,77,0,49,0,77,0,49,0,0,77,0,0,49,2,0,77,0,0,49,1,77,0,0,49,2,0,0,77,0,0,49,1,77,0,0,49,2,0,77,0,0,49,2,0,77,0,0,49,2,0,0,77,0,0,49,0,77,0,0,49,2,0,77,0,0,49,2,0,0,77,0,1,49,0,0,77,0,0,49,0,0,77,0,2,49,1,77,0,0,49,2,0,58,18,1,37,13,4
2018-08-19T23:59:59Z,49,76,49,34,76,49,41,29,5,6,0,0,0,0,0,0,50,26,35,17,0,76,0,49,75,1,48,1,76,0,49,0,0,75,1,0,49,3,0,76,0,0,49,0,76,0,0,49,3,0,0,76,0,0,49,0,76,0,0,49,3,0,76,0,0,49,3,0,76,0,0,49,3,0,0,76,0,0,49,0,76,0,0,49,3,0,76,0,0,49,3,0,0,76,0,0,49,0,0,76,0,0,49,0,1,75,0,3,49,0,76,0,0,49,3,0,56,19,1,36,14,5
2018-08-20T23:59:59Z,52,79,53,37,79,52,43,31,5,6,0,0,0,0,0,0,52,27,38,20,0,79,0,52,79,0,52,0,79,0,52,0,0,77,2,0,51,4,0,78,1,0,51,2,78,0,1,51,4,1,0,79,0,0,52,2,79,0,0,52,4,0,79,0,0,52,4,0,79,0,0,52,4,0,1,78,0,1,52,0,79,0,0,52,4,0,79,0,0,52,4,0,0,79,0,1,52,0,0,79,0,0,52,0,1,78,0,3,52,1,79,0,0,52,4,0,60,18,1,39,14,6
2018-08-21T23:59:59Z,52,80,53,37,80,52,43,31,6,7,0,0,0,0,0,0,54,26,38,19,0,80,0,52,79,0,51,0,80,0,52,0,0,79,1,0,52,3,0,80,0,0,52,1,80,0,0,52,3,0,0,80,0,0,52,1,80,0,0,52,3,0,80,0,0,52,3,0,80,0,0,52,3,0,0,80,0,0,52,0,80,0,0,52,3,0,80,0,0,52,3,0,0,80,0,2,52,0,0,80,0,0,52,0,1,79,0,3,52,1,80,0,0,52,3,0,61,17,2,40,13,6
2018-08-22T23:59:57Z,52,80,53,37,80,52,43,31,5,6,0,0,0,0,0,0,57,23,40,17,0,80,0,52,79,1,51,1,80,0,52,0,0,80,0,0,52,3,0,80,0,0,52,2,79,1,0,51,4,1,0,80,0,0,52,2,80,0,0,52,4,1,80,0,0,52,4,1,79,1,0,51,4,1,0,80,0,0,52,1,79,1,0,51,4,1,79,1,0,51,4,1,1,79,0,2,52,1,0,80,0,0,52,1,0,80,0,2,52,2,79,1,0,51,4,1,61,18,1,39,14,6
2018-08-23T23:59:58Z,53,81,54,38,27,20,18,13,7,8,0,0,0,0,0,0,54,27,39,20,0,81,0,53,79,0,51,0,81,0,53,0,0,79,2,0,52,4,0,81,0,0,53,1,81,0,0,53,4,0,0,81,0,0,53,1,81,0,0,53,4,0,81,0,0,53,4,0,81,0,0,53,4,0,0,81,0,0,53,0,81,0,0,53,3,0,81,0,0,53,4,0,0,81,0,1,53,0,0,81,0,0,53,0,2,79,0,4,52,1,81,0,0,53,4,0,61,19,1,39,15,7
2018-08-24T23:59:58Z,53,81,53,37,81,53,44,32,4,6,0,0,0,0,0,0,55,26,39,19,0,81,0,53,80,0,52,0,81,0,53,0,0,80,1,0,52,3,0,81,0,1,53,0,81,0,0,53,2,0,0,81,0,0,53,1,81,0,0,53,2,0,81,0,0,53,2,0,81,0,0,53,2,0,0,81,0,0,53,0,81,0,0,53,2,0,81,0,0,53,2,0,0,81,0,2,53,0,0,81,0,0,53,0,1,80,0,3,52,1,81,0,0,53,2,0,61,19,1,39,15,5
2018-08-25T23:59:59Z,54,81,55,39,81,54,44,32,7,8,0,0,0,0,0,0,54,27,38,21,0,81,0,54,78,1,51,1,81,0,54,0,0,78,3,1,51,5,0,81,0,1,54,1,81,0,0,54,2,0,0,81,0,1,54,1,81,0,0,54,2,0,81,0,0,54,2,0,81,0,0,54,2,0,0,81,0,0,54,0,81,0,0,54,2,0,81,0,0,54,2,0,2,79,0,4,52,0,0,81,0,0,54,0,3,78,0,5,51,1,81,0,0,54,2,0,59,19,3,39,15,7
2018-08-26T23:59:59Z,53,83,55,37,83,53,43,31,7,7,0,0,0,0,0,0,55,28,38,20,0,83,0,53,80,0,51,0,83,0,53,0,1,80,2,1,51,4,2,81,0,3,52,0,82,0,1,53,2,1,0,83,0,1,53,1,82,0,1,53,2,1,82,0,1,53,2,1,83,0,0,53,2,0,1,82,0,1,53,0,83,0,0,53,2,0,83,0,0,53,2,0,2,81,0,6,52,0,0,83,0,0,53,0,1,82,0,3,53,1,82,0,1,53,2,1,62,19,2,40,15,6
2018-08-27T23:59:57Z,53,83,56,38,82,52,46,32,6,7,0,0,0,0,0,0,58,25,39,19,0,83,0,53,81,0,51,0,83,0,53,0,0,82,1,0,52,3,0,83,0,0,53,1,83,0,0,53,2,0,0,83,0,0,53,1,83,0,0,53,2,0,83,0,0,53,2,0,83,0,0,53,2,0,0,83,0,0,53,0,83,0,0,53,2,0,83,0,0,53,2,0,2,80,1,5,51,1,0,81,2,0,52,1,1,82,0,3,52,1,83,0,0,53,2,0,62,19,2,39,15,6
2018-08-28T23:59:57Z,53,82,54,37,81,53,43,30,7,8,0,0,0,0,0,0,56,26,39,20,0,82,0,53,81,0,52,0,82,0,53,0,0,80,2,1,51,4,0,82,0,3,53,0,82,0,0,53,2,0,0,82,0,2,53,1,82,0,0,53,2,0,82,0,0,53,2,0,82,0,0,53,2,0,0,82,0,0,53,0,82,0,0,53,2,0,82,0,0,53,2,0,2,80,0,6,52,0,0,82,0,0,53,0,2,80,0,3,52,1,82,0,0,53,2,0,63,17,2,41,14,6
2018-08-29T23:59:58Z,55,85,57,39,85,55,47,33,6,7,0,0,0,0,0,0,61,24,42,19,0,85,0,55,85,0,55,0,85,0,55,0,0,85,0,0,55,2,0,85,0,1,55,1,85,0,0,55,2,0,0,85,0,1,55,1,85,0,0,55,2,0,85,0,0,55,2,0,85,0,0,55,2,0,0,85,0,0,55,0,85,0,0,55,2,0,85,0,0,55,2,0,1,84,0,5,54,0,0,85,0,0,55,0,0,85,0,2,55,1,85,0,0,55,2,1,63,19,3,41,16,7
2018-08-30T23:59:59Z,40,61,44,30,61,40,38,26,6,6,0,0,0,0,0,0,37,24,25,18,0,61,0,40,27,4,18,3,61,0,40,0,0,59,2,0,38,4,0,61,0,1,40,1,61,0,0,40,1,1,0,61,0,1,40,1,61,0,0,40,1,1,60,1,0,39,1,1,60,1,0,39,1,1,0,61,0,1,40,1,60,1,0,39,1,1,60,1,0,39,1,1,3,58,0,6,37,1,0,61,0,0,40,1,2,59,0,4,38,1,60,1,0,39,1,1,37,21,3,25,16,8
2018-08-31T23:59:58Z,56,87,59,40,87,56,47,32,6,8,0,0,0,0,0,0,60,27,41,21,0,87,0,56,84,0,53,0,87,0,56,0,1,85,1,1,54,4,1,86,0,2,56,1,87,0,0,56,2,0,0,87,0,1,56,1,87,0,0,56,2,0,87,0,0,56,2,0,87,0,0,56,2,0,0,87,0,0,56,0,87,0,0,56,2,0,87,0,0,56,2,0,1,86,0,6,55,0,0,87,0,0,56,0,1,86,0,3,55,1,87,0,0,56,2,0,65,19,3,42,15,7
2018-09-01T23:59:59Z,51,81,55,37,80,50,45,31,4,6,0,0,0,0,0,0,58,23,39,17,0,81,0,51,80,0,50,0,81,0,51,0,1,80,0,1,50,2,0,81,0,1,51,1,81,0,0,51,2,0,0,81,0,1,51,1,81,0,0,51,2,0,81,0,0,51,2,0,81,0,0,51,2,0,0,81,0,0,51,0,81,0,0,51,2,0,81,0,0,51,2,0,1,80,0,4,50,0,0,81,0,0,51,0,2,79,0,4,49,1,81,0,0,51,2,0,63,17,1,39,14,4
2018-09-02T23:59:58Z,52,80,57,39,79,51,48,33,6,7,0,0,0,0,0,0,55,25,38,19,0,80,0,52,79,0,51,0,80,0,52,0,1,78,1,1,50,3,0,80,0,1,52,1,80,0,0,52,2,0,0,80,0,2,52,1,80,0,0,52,2,0,80,0,0,52,2,0,80,0,0,52,2,0,0,80,0,0,52,0,80,0,0,52,2,0,80,0,0,52,2,0,3,77,0,6,50,0,0,80,0,0,52,0,2,78,0,4,51,1,80,0,0,52,2,0,59,20,1,38,17,4
2018-09-03T23:59:56Z,59,91,62,42,85,56,51,35,5,7,0,0,0,0,0,0,66,25,44,21,0,91,0,59,89,1,57,1,91,0,59,0,2,87,2,2,56,5,1,90,0,2,59,1,91,0,0,59,3,0,0,91,0,1,59,1,90,1,0,58,3,0,90,1,0,58,3,0,90,1,0,58,3,0,0,91,0,0,59,0,90,1,0,58,3,0,90,1,0,58,3,0,2,89,0,7,57,0,0,91,0,0,59,0,1,89,1,4,57,2,90,1,0,58,3,0,68,20,3,43,18,8
2018-09-04T23:59:59Z,54,84,58,39,84,54,49,34,5,6,0,0,0,0,0,0,61,23,42,18,0,84,0,54,84,0,54,0,84,0,54,0,0,84,0,0,54,2,0,84,0,1,54,1,84,0,0,54,2,0,0,84,0,1,54,1,84,0,0,54,2,0,84,0,0,54,2,0,84,0,0,54,2,0,0,84,0,0,54,0,84,0,0,54,2,0,84,0,0,54,2,0,0,84,0,4,54,0,0,84,0,0,54,0,0,84,0,2,54,1,84,0,0,54,2,0,64,18,2,41,15,6
2018-09-05T23:59:59Z,57,88,60,41,88,57,50,35,6,7,0,0,0,0,0,0,64,24,43,20,0,88,0,57,85,0,54,0,88,0,57,0,0,86,2,1,55,4,0,88,0,2,57,1,87,1,0,56,3,0,0,88,0,2,57,1,87,1,0,56,3,0,87,1,0,56,3,0,87,1,0,56,3,0,0,88,0,1,57,0,87,1,0,56,3,0,87,1,0,56,3,0,1,87,0,5,56,0,0,88,0,0,57,0,1,86,1,4,55,2,88,0,0,57,3,0,67,18,3,43,15,7
2018-09-06T23:59:59Z,55,86,58,39,86,55,48,33,5,6,0,0,0,0,0,0,65,21,43,17,0,86,0,55,85,0,54,0,86,0,55,0,0,86,0,0,55,2,1,85,0,2,55,0,86,0,0,55,3,0,0,86,0,2,55,0,85,1,0,55,3,0,86,0,0,55,3,0,86,0,0,55,2,0,0,86,0,0,55,0,86,0,0,55,3,0,85,1,0,55,3,0,1,85,0,4,54,0,0,86,0,0,55,0,1,85,0,3,54,0,86,0,0,55,2,0,67,17,2,43,15,6
2018-09-07T23:59:55Z,54,83,57,39,82,53,44,31,3,5,0,0,0,0,0,0,61,22,41,18,0,83,0,54,81,0,52,0,83,0,54,0,2,81,0,2,53,3,1,81,1,2,54,1,83,0,0,54,3,0,0,83,0,1,54,0,82,1,0,53,3,0,83,0,0,54,2,0,81,2,0,53,4,0,0,83,0,0,54,0,82,1,0,53,3,0,81,2,0,53,4,0,1,82,0,5,53,0,0,83,0,0,54,0,0,83,0,2,54,0,83,0,0,54,3,0,67,14,2,43,14,7
2018-09-08T23:59:55Z,55,84,58,40,83,54,48,34,4,7,0,0,0,0,0,0,61,23,41,19,0,84,0,55,81,0,52,0,84,0,55,0,0,83,1,0,54,4,1,83,0,2,55,0,84,0,0,55,2,0,0,84,0,1,55,0,84,0,0,55,2,0,84,0,0,55,2,0,84,0,0,55,2,0,0,84,0,0,55,0,84,0,0,55,2,0,84,0,0,55,2,0,3,81,0,7,52,0,0,84,0,0,55,0,2,82,0,5,53,0,84,0,0,55,2,0,67,14,3,43,13,8
2018-09-09T23:59:58Z,54,82,56,39,82,54,46,33,3,6,0,0,0,0,0,0,59,23,40,19,0,82,0,54,80,0,52,0,82,0,54,0,1,81,0,1,53,4,1,81,0,2,54,0,82,0,0,54,2,0,0,82,0,2,54,0,82,0,0,54,2,0,82,0,0,54,2,0,82,0,0,54,2,0,0,82,0,0,54,0,82,0,0,54,2,0,82,0,0,54,2,0,2,80,0,6,53,0,0,82,0,0,54,0,1,81,0,4,54,0,82,0,0,54,2,0,66,14,2,44,13,7
2018-09-10T23:59:59Z,53,83,57,38,82,52,46,31,1,4,0,0,0,0,0,0,57,26,39,20,0,83,0,53,80,2,51,1,83,0,53,0,1,82,0,1,52,2,1,82,0,2,53,0,82,1,0,53,3,0,0,83,0,2,53,0,83,0,0,53,2,0,83,0,0,53,2,0,83,0,0,53,2,0,0,83,0,0,53,0,83,0,0,53,2,0,81,2,0,53,3,0,1,82,0,4,52,0,0,83,0,0,53,0,1,82,0,3,52,0,82,1,0,53,3,0,68,13,2,43,13,6
2018-09-11T23:59:56Z,56,87,59,40,87,56,50,34,5,7,0,0,0,0,0,0,63,24,43,19,0,87,0,56,86,0,55,0,87,0,56,0,0,85,2,0,55,4,0,87,0,1,56,1,87,0,0,56,1,0,0,87,0,1,56,1,87,0,0,56,1,0,87,0,0,56,1,0,87,0,0,56,1,0,0,87,0,0,56,0,87,0,0,56,1,0,87,0,0,56,1,0,1,86,0,6,55,0,0,87,0,0,56,0,2,85,0,4,55,1,87,0,0,56,1,0,66,18,3,42,15,7
2018-09-12T23:59:58Z,56,87,59,40,86,55,49,34,5,7,0,0,0,0,0,0,62,25,43,19,0,87,0,56,86,0,55,0,87,0,56,0,1,85,1,1,55,3,1,86,0,2,56,1,87,0,0,56,1,0,0,87,0,1,56,1,87,0,0,56,1,0,87,0,0,56,1,0,87,0,0,56,1,0,0,87,0,0,56,0,87,0,0,56,1,0,87,0,0,56,1,0,1,86,0,6,55,0,0,87,0,0,56,0,1,86,0,3,56,1,87,0,0,56,1,0,66,19,2,42,16,6
2018-09-13T23:59:58Z,55,86,58,39,86,55,48,32,5,6,0,0,0,0,0,0,62,24,42,18,0,86,0,55,85,0,54,0,86,0,55,0,0,86,0,0,55,2,1,85,0,2,55,1,86,0,0,55,1,0,0,86,0,1,55,1,86,0,0,55,2,0,85,1,0,55,2,0,86,0,0,55,2,0,0,86,0,0,55,0,86,0,0,55,1,0,86,0,0,55,1,0,0,86,0,5,55,0,0,86,0,0,55,0,0,86,0,1,55,2,86,0,0,55,2,0,67,17,2,43,15,5
2018-09-14T23:59:58Z,55,88,60,39,88,55,51,33,3,5,0,0,0,0,0,0,66,22,43,17,0,88,0,55,88,0,55,0,88,0,55,0,0,87,1,1,54,3,0,88,0,2,55,1,88,0,0,55,1,0,0,88,0,2,55,1,88,0,0,55,1,0,88,0,0,55,1,0,88,0,0,55,1,0,0,88,0,0,55,0,88,0,0,55,1,0,88,0,0,55,1,0,1,87,0,5,55,0,0,88,0,0,55,0,0,88,0,0,55,3,88,0,0,55,1,0,67,19,2,43,14,5
2018-09-15T23:59:59Z,57,88,60,41,87,57,49,33,3,5,0,0,0,0,0,0,63,25,43,19,0,88,0,57,86,0,56,0,88,0,57,0,0,86,2,0,56,5,0,88,0,1,57,2,88,0,0,57,1,2,0,88,0,3,57,2,87,1,0,56,2,2,87,1,0,56,2,1,88,0,0,57,2,1,0,88,0,0,57,0,87,1,0,56,2,2,87,1,0,56,2,1,1,87,0,6,57,0,0,88,0,1,57,0,0,88,0,0,57,3,87,1,0,56,2,0,68,19,1,44,15,4
2018-09-16T23:59:59Z,57,86,58,41,85,57,46,34,5,7,0,0,0,0,0,0,62,24,44,19,0,86,0,57,83,2,54,2,86,0,57,0,0,83,3,1,56,5,0,86,0,2,57,1,86,0,0,57,2,2,0,86,0,2,57,2,86,0,0,57,3,0,86,0,0,57,2,1,85,1,0,57,3,0,0,86,0,0,57,2,85,1,0,56,3,1,85,1,0,56,3,0,2,84,0,7,57,0,0,85,1,0,56,1,1,84,1,1,57,4,85,1,0,56,3,1,66,18,2,43,16,6
2018-09-17T23:59:59Z,61,93,65,45,93,61,54,38,11,12,0,0,0,0,0,0,65,28,44,22,0,93,0,61,88,4,57,4,93,0,61,0,1,86,6,2,57,8,3,90,0,5,61,1,93,0,0,61,1,1,0,93,0,2,61,2,93,0,0,61,2,0,93,0,0,61,1,2,93,0,0,61,2,0,1,92,0,2,61,1,93,0,0,61,2,1,93,0,0,61,1,0,5,88,0,10,57,0,0,93,0,0,61,0,1,88,4,2,58,7,92,1,0,61,2,1,69,19,5,45,19,9
2018-09-18T23:59:58Z,59,91,63,43,91,59,55,38,7,9,0,0,0,0,0,0,65,26,44,20,0,91,0,59,87,1,55,1,91,0,59,0,0,88,3,0,57,5,1,90,0,2,59,1,91,0,0,59,2,0,0,91,0,1,59,1,91,0,0,59,2,0,91,0,0,59,2,0,91,0,0,59,2,0,1,90,0,1,59,0,91,0,0,59,2,0,91,0,0,59,2,0,3,88,0,8,57,0,0,91,0,0,59,0,1,87,3,1,57,6,91,0,0,59,2,0,65,23,3,41,18,7
2018-09-19T23:59:58Z,55,85,59,40,85,55,51,34,7,8,0,0,0,0,0,0,64,21,43,17,0,85,0,55,83,2,53,2,85,0,55,0,0,82,3,0,52,5,0,85,0,1,55,1,84,1,0,54,2,0,0,85,0,2,55,1,84,1,0,54,2,0,84,1,0,54,2,0,85,0,0,55,1,0,1,84,0,1,54,0,85,0,0,55,1,0,84,1,0,54,2,0,1,83,1,5,53,1,0,84,1,0,54,1,0,84,1,0,54,4,84,0,1,54,1,1,65,18,2,42,15,5
2018-09-20T23:59:58Z,58,87,61,43,87,58,50,37,8,9,0,0,0,0,0,0,64,23,44,20,0,86,0,57,83,2,54,2,87,0,58,0,0,84,3,0,56,5,1,86,0,2,58,1,86,1,0,58,3,0,0,87,0,2,58,2,86,0,1,57,3,1,86,0,1,57,3,1,86,0,1,57,3,1,1,86,0,1,58,0,86,1,0,57,3,0,86,1,0,57,3,0,3,83,1,8,55,1,0,86,1,0,58,1,2,82,3,2,55,6,86,0,1,58,2,1,66,19,2,43,17,7
2018-09-21T23:59:59Z,60,89,62,45,89,60,53,40,8,11,0,0,0,0,0,0,64,25,44,22,0,89,0,60,83,2,56,2,89,0,60,0,0,84,5,2,57,8,1,88,0,4,60,1,89,0,0,60,2,0,0,89,0,3,60,1,88,1,0,60,3,0,88,1,0,60,3,0,88,1,0,60,3,0,0,89,0,2,60,0,89,0,0,60,2,0,89,0,0,60,2,0,5,84,0,10,58,0,0,89,0,0,60,0,0,84,5,3,57,9,88,1,0,60,3,0,69,15,5,46,17,10
2018-09-22T23:59:59Z,55,84,59,41,84,55,50,36,7,8,0,0,0,0,0,0,60,24,41,20,0,84,0,55,79,0,51,0,84,0,55,0,0,81,3,0,53,5,0,84,0,1,55,1,84,0,0,55,2,0,0,84,0,1,55,1,84,0,0,55,2,0,84,0,0,55,2,0,84,0,0,55,2,0,1,83,0,1,55,0,84,0,0,55,2,0,84,0,0,55,2,0,2,82,0,6,53,0,0,84,0,0,55,0,1,81,2,1,53,5,84,0,0,55,2,0,65,16,3,41,14,7
2018-09-23T23:59:58Z,56,86,59,41,86,56,49,35,9,9,0,0,0,0,0,0,63,23,42,20,0,86,0,56,82,1,53,1,86,0,56,0,0,82,4,1,56,5,0,86,0,2,56,1,86,0,0,56,4,0,0,86,0,2,56,1,86,0,0,56,4,0,86,0,0,56,4,0,86,0,0,56,4,0,0,86,0,1,56,0,86,0,0,56,4,0,86,0,0,56,4,0,4,82,0,6,55,0,0,86,0,0,56,0,0,82,4,1,56,6,86,0,0,56,4,0,66,15,5,43,14,7
2018-09-24T23:59:56Z,56,85,58,40,85,56,47,33,5,5,0,0,0,0,0,0,64,21,43,19,0,85,0,56,84,0,55,0,85,0,56,0,0,84,1,0,55,2,0,85,0,1,56,1,84,1,0,55,3,0,0,85,0,2,56,1,84,1,0,55,3,0,84,1,0,55,3,0,84,1,0,55,3,0,0,85,0,0,56,0,85,0,0,56,2,0,85,0,0,56,2,0,0,85,0,3,56,0,0,85,0,0,56,0,0,85,0,0,56,2,84,1,0,55,3,0,68,16,1,44,14,4
2018-09-25T23:59:59Z,59,88,61,43,88,59,50,36,7,8,0,0,0,0,0,0,63,25,43,22,0,88,0,59,85,0,56,0,88,0,59,0,1,84,3,1,56,5,1,87,0,2,59,1,88,0,0,59,3,0,0,88,0,2,59,1,88,0,0,59,3,0,88,0,0,59,3,0,87,0,1,59,3,1,0,88,0,0,59,0,88,0,0,59,3,0,88,0,0,59,3,0,5,83,0,8,56,0,0,87,1,0,59,2,3,85,0,4,57,1,88,0,0,59,3,0,67,17,4,45,15,8
2018-09-26T23:59:58Z,56,85,57,40,85,56,47,34,6,7,0,0,0,0,0,0,61,24,42,20,0,85,0,56,82,0,54,0,85,0,56,0,0,84,1,0,55,3,1,84,0,2,56,1,84,1,0,56,3,0,0,85,0,1,56,1,85,0,0,56,2,0,84,1,0,56,3,1,85,0,0,56,2,0,0,85,0,0,56,0,84,1,0,56,3,0,85,0,0,56,2,0,1,84,0,5,55,0,0,85,0,0,56,0,1,84,0,3,55,1,84,1,0,56,3,0,68,15,2,44,13,6
2018-09-27T23:59:59Z,55,85,57,39,85,55,46,31,5,6,0,0,0,0,0,0,61,24,42,18,0,85,0,55,85,0,55,0,85,0,55,0,0,85,0,0,55,2,0,85,0,1,55,1,85,0,0,55,1,0,0,85,0,1,55,1,85,0,0,55,1,0,85,0,0,55,1,0,85,0,0,55,1,0,0,85,0,0,55,0,85,0,0,55,1,0,85,0,0,55,1,0,0,85,0,4,55,0,0,85,0,0,55,0,0,85,0,2,55,1,85,0,0,55,1,0,68,16,1,44,13,4
2018-09-28T23:59:59Z,59,89,62,44,87,59,50,35,6,8,0,0,0,0,0,0,61,28,44,22,0,89,0,59,85,1,55,1,89,0,59,0,1,85,3,1,57,5,2,87,0,4,58,1,89,0,0,59,2,0,0,89,0,2,59,1,88,1,0,58,3,0,88,1,0,58,3,0,88,1,0,58,3,0,1,88,0,1,59,0,89,0,0,59,2,0,89,0,0,59,2,0,3,86,0,8,57,0,0,89,0,0,59,0,4,85,0,6,57,1,88,1,0,58,3,0,67,18,4,44,15,8
2018-09-29T23:59:57Z,56,88,60,41,88,56,49,33,6,7,0,0,0,0,0,0,65,23,43,17,0,88,0,56,85,0,53,0,88,0,56,0,0,86,2,0,54,4,0,88,0,2,56,1,88,0,0,56,2,0,0,88,0,1,56,0,87,1,0,56,2,0,87,1,0,56,2,0,87,1,0,56,2,0,0,88,0,0,56,0,87,1,0,56,2,0,88,0,0,56,2,0,3,85,0,7,54,0,0,88,0,0,56,0,2,86,0,4,54,0,88,0,0,56,1,0,70,17,1,44,15,4